KC8RP Weather Reports


time (UTC)temp
C
wind
direction
speed
KPH
gust
KPH
rain 1hr
cm
rain 24hr
cm
rain mn
cm
humidity
%
barometer
mb
20260902213019 35 209 3.2 17.7 0.00 0.00 0.00 55 1011.9
20260902211517 35 217 4.8 11.3 0.00 0.00 0.00 52 1012.0
20260902210014 35 188 3.2 12.9 0.00 0.00 0.00 52 1012.0
20260902204514 35 302 4.8 14.5 0.00 0.00 0.00 53 1012.2
20260902203013 34 207 3.2 14.5 0.00 0.00 0.00 53 1012.2
20260902201511 34 253 1.6 8.0 0.00 0.00 0.00 55 1012.3
20260902200009 35 182 3.2 11.3 0.00 0.00 0.00 54 1012.3
20260902194508 35 213 3.2 16.1 0.00 0.00 0.00 53 1012.5
20260902193005 35 217 3.2 14.5 0.00 0.00 0.00 52 1012.7
20260902191503 35 262 6.4 16.1 0.00 0.00 0.00 52 1013.0
20260902184603 35 247 6.4 17.7 0.00 0.00 0.00 51 1013.1
20260902183136 35 197 3.2 16.1 0.00 0.00 0.00 51 1013.2
20260902181604 35 200 8.0 22.5 0.00 0.00 0.00 52 1013.2
20260902180052 34 265 6.4 20.9 0.00 0.00 0.00 55 1013.5
20260902174550 34 228 4.8 19.3 0.00 0.00 0.00 54 1013.6
20260902173055 34 273 6.4 12.9 0.00 0.00 0.00 55 1013.8
20260902171547 33 296 3.2 16.1 0.00 0.00 0.00 55 1013.9
20260902170045 33 200 4.8 12.9 0.00 0.00 0.00 57 1014.1
20260902164545 33 216 3.2 12.9 0.00 0.00 0.00 61 1014.3
20260902163032 -17 0.0 0.0 0.00 0.00 0.00 1014.4
20260902160045 32 188 3.2 12.9 0.00 0.00 0.00 65 1014.2
20260902154546 31 321 4.8 14.5 0.00 0.00 0.00 65 1014.4
20260902153028 31 298 0.0 12.9 0.00 0.00 0.00 68 1014.5
20260902151531 30 232 3.2 9.7 0.00 0.00 0.00 71 1014.6
20260902150020 29 290 3.2 9.7 0.00 0.00 0.00 72 1014.6
20260902144515 28 267 3.2 12.9 0.00 0.00 0.00 73 1014.6
20260902143012 28 264 0.0 11.3 0.00 0.00 0.00 73 1014.6
20260902141509 27 269 3.2 12.9 0.00 0.00 0.00 75 1014.6
20260902140009 27 215 3.2 11.3 0.00 0.00 0.00 76 1014.5
20260902134502 26 251 3.2 8.0 0.00 0.00 0.00 78 1014.6
20260902133058 25 234 3.2 11.3 0.00 0.00 0.00 81 1014.6
20260902131608 25 261 1.6 6.4 0.00 0.00 0.00 85 1014.5
20260902130059 23 221 1.6 8.0 0.00 0.00 0.00 88 1014.5
20260902124553 22 215 0.0 4.8 0.00 0.00 0.00 92 1014.5
20260902123051 22 215 0.0 4.8 0.00 0.00 0.00 92 1014.4
20260902121550 22 360 0.0 0.0 0.00 0.00 0.00 91 1014.4
20260902120049 21 360 0.0 0.0 0.00 0.00 0.00 90 1014.4
20260902114606 21 360 0.0 0.0 0.00 0.00 0.00 90 1014.1
20260902113043 21 360 0.0 0.0 0.00 0.00 0.00 89 1013.9
20260902111543 21 360 0.0 0.0 0.00 0.00 0.00 89 1013.8
20260902110047 21 360 0.0 0.0 0.00 0.00 0.00 89 1013.7
20260902104542 21 360 0.0 0.0 0.00 0.00 0.00 88 1013.7
20260902103042 21 360 0.0 0.0 0.00 0.00 0.00 88 1013.8
20260902101544 22 360 0.0 0.0 0.00 0.00 0.00 88 1013.7
20260902100035 22 360 0.0 0.0 0.00 0.00 0.00 87 1013.7
20260902094532 22 360 0.0 0.0 0.00 0.00 0.00 87 1013.6
20260902093038 22 360 0.0 0.0 0.00 0.00 0.00 87 1013.6
20260902091531 22 360 0.0 0.0 0.00 0.00 0.00 87 1013.5
20260902090029 22 360 0.0 0.0 0.00 0.00 0.00 87 1013.5
20260902084529 22 360 0.0 0.0 0.00 0.00 0.00 87 1013.3
20260902083034 22 360 0.0 0.0 0.00 0.00 0.00 87 1013.0
20260902081538 22 360 0.0 0.0 0.00 0.00 0.00 87 1013.0
20260902080027 22 360 0.0 0.0 0.00 0.00 0.00 87 1012.9
20260902074524 22 360 0.0 0.0 0.00 0.00 0.00 87 1012.9
20260902073029 22 360 0.0 0.0 0.00 0.00 0.00 86 1012.9
20260902071521 22 360 0.0 0.0 0.00 0.00 0.00 86 1012.8
20260902070021 22 360 0.0 0.0 0.00 0.00 0.00 86 1012.9
20260902064519 22 360 0.0 0.0 0.00 0.00 0.00 85 1012.9
20260902063018 23 360 0.0 0.0 0.00 0.00 0.00 85 1012.9
20260902061515 23 360 0.0 0.0 0.00 0.00 0.00 85 1012.9
20260902060017 23 360 0.0 0.0 0.00 0.00 0.00 84 1013.0
20260902054521 23 360 0.0 0.0 0.00 0.00 0.00 84 1012.9
20260902053014 23 360 0.0 0.0 0.00 0.00 0.00 84 1013.0
20260902051510 23 360 0.0 0.0 0.00 0.00 0.00 83 1013.0
20260902050009 24 360 0.0 0.0 0.00 0.00 0.00 83 1013.0
20260902044507 24 360 0.0 0.0 0.00 0.00 0.00 82 1013.0
20260902043007 24 360 0.0 0.0 0.00 0.00 0.00 82 1012.9
20260902041502 25 360 0.0 0.0 0.00 0.00 0.00 81 1013.0
20260902040104 25 360 0.0 0.0 0.00 0.00 0.00 79 1013.0
20260902034601 25 360 0.0 0.0 0.00 0.00 0.00 79 1013.0
20260902033106 26 360 0.0 0.0 0.00 0.00 0.00 77 1013.0
20260902031558 26 215 0.0 0.0 0.00 0.00 0.00 75 1012.9
20260902030059 27 215 0.0 0.0 0.00 0.00 0.00 74 1012.9
20260902024601 27 215 0.0 0.0 0.00 0.00 0.00 71 1012.9
20260902023057 28 215 0.0 3.2 0.00 0.00 0.00 70 1012.8
20260902021557 28 215 0.0 4.8 0.00 0.00 0.00 68 1012.9
20260902020059 28 214 1.6 8.0 0.00 0.00 0.00 67 1012.7
20260902014557 29 221 1.6 4.8 0.00 0.00 0.00 67 1012.7
20260902013056 28 221 1.6 4.8 0.00 0.00 0.00 68 1012.6
20260902011555 28 221 1.6 3.2 0.00 0.00 0.00 70 1012.4
20260902010055 28 221 0.0 1.6 0.00 0.00 0.00 71 1012.3
20260902004555 28 221 0.0 1.6 0.00 0.00 0.00 70 1012.3
20260902003058 29 221 0.0 0.0 0.00 0.00 0.00 68 1012.3
20260902001552 30 221 0.0 1.6 0.00 0.00 0.00 66 1012.4
20260902000113 31 221 0.0 3.2 0.00 0.00 0.00 63 1012.5
20260901234551 31 221 0.0 4.8 0.00 0.00 0.00 61 1012.5
20260901233052 32 222 1.6 4.8 0.00 0.00 0.00 58 1012.6
20260901231552 32 216 0.0 6.4 0.00 0.00 0.00 55 1012.6
20260901230104 33 229 1.6 6.4 0.00 0.00 0.00 54 1012.7
20260901224550 33 201 3.2 12.9 0.00 0.00 0.00 53 1012.6
20260901223059 33 229 3.2 11.3 0.00 0.00 0.00 52 1012.5
20260901221550 34 265 3.2 17.7 0.00 0.00 0.00 53 1012.5
20260901220111 34 229 3.2 14.5 0.00 0.00 0.00 52 1012.4
20260901214547 34 210 1.6 12.9 0.00 0.00 0.00 51 1012.5